Kissimmee, FL

4:53 AM EST on November 15, 2019 (GMT -0500)
Kissimmee Municipal

Weather History for KISM - September, 2019

Change the Weather History Date:

Tuesday, September 17, 2019

  Actual Average Record
Temperature  
Mean Temperature 84 °F -  
Max Temperature 95 °F 89 °F 96 °F (2004)
Min Temperature 73 °F 71 °F 66 °F (2001)
Cooling Degree Days 19    
Growing Degree Days 34 (Base 50)    
Moisture  
Dew Point 68 °F    
Average Humidity 67    
Maximum Humidity 94    
Minimum Humidity 32    
Precipitation  
Precipitation 0.00 in - - ()
Sea Level Pressure  
Sea Level Pressure 29.94 in    
Wind  
Wind Speed 4 mph (North)    
Max Wind Speed 12 mph    
Max Gust Speed 16 mph    
Visibility 10 miles    
Events      
Averages and records for this station are not official NWS values.
T = Trace of Precipitation, MM = Missing Value Source: NWS Daily Summary

Daily Weather History Graph

Daily Weather History Graph

Search for Another Location

Airport or City:

Astronomy

Sep. 17, 2019 Rise Set
Actual Time 7:11 AM EDT 7:28 PM EDT
Civil Twilight 6:48 AM EDT 7:51 PM EDT
Nautical Twilight 6:20 AM EDT 8:19 PM EDT
Astronomical Twilight 5:52 AM EDT 8:47 PM EDT
Moon 9:46 PM EDT (9/17) 10:02 AM EDT (9/17)
Length of Visible Light 13h 03m
Length of Day
12h 16m
Waning Gibbous, 89% of the Moon is Illuminated
Sep 17
Waning Gibbous
Sep 21
Last Quarter
Sep 28
New
Oct 5
First Quarter
Oct 13
Full

Hourly Weather History & Observations

Time (EDT) Temp. Heat Index Dew Point Humidity Pressure Visibility Wind Dir Wind Speed Gust Speed Precip Events Conditions
12:56 AM 75.0 °F - 73.0 °F 94% 29.94 in 10.0 mi Calm Calm - N/A   Clear
1:56 AM 75.0 °F - 72.0 °F 90% 29.94 in 10.0 mi Calm Calm - N/A   Clear
2:56 AM 73.9 °F - 72.0 °F 93% 29.93 in 10.0 mi WNW 3.5 mph - N/A   Clear
3:56 AM 73.9 °F - 72.0 °F 93% 29.92 in 10.0 mi WNW 3.5 mph - N/A   Clear
4:56 AM 73.9 °F - 72.0 °F 93% 29.92 in 10.0 mi NW 3.5 mph - N/A   Clear
5:56 AM 73.0 °F - 71.1 °F 93% 29.94 in 10.0 mi NW 4.6 mph - N/A   Clear
6:56 AM 73.0 °F - 71.1 °F 93% 29.96 in 10.0 mi WNW 3.5 mph - N/A   Clear
7:56 AM 75.0 °F - 72.0 °F 90% 29.97 in 10.0 mi NW 4.6 mph - N/A   Clear
8:56 AM 80.1 °F 83.8 °F 72.0 °F 76% 29.98 in 10.0 mi WNW 5.8 mph - N/A   Clear
9:56 AM 84.0 °F 89.0 °F 71.1 °F 65% 29.99 in 10.0 mi West 6.9 mph - N/A   Clear
2:56 PM 93.9 °F 97.5 °F 66.9 °F 41% 29.94 in 10.0 mi NNW 8.1 mph - N/A   Partly Cloudy
3:56 PM 95.0 °F 95.2 °F 61.0 °F 32% 29.92 in 10.0 mi NE 9.2 mph - N/A   Clear
4:56 PM 95.0 °F 95.6 °F 62.1 °F 33% 29.91 in 10.0 mi NNE 8.1 mph 16.1 mph N/A   Clear
5:56 PM 93.0 °F 93.8 °F 62.1 °F 36% 29.91 in 10.0 mi NE 8.1 mph - N/A   Clear
6:56 PM 90.0 °F 90.6 °F 63.0 °F 40% 29.92 in 10.0 mi NE 11.5 mph 16.1 mph N/A   Clear
7:21 PM 89.6 °F 90.1 °F 62.6 °F 40% 29.92 in 10.0 mi NE 10.4 mph - N/A   Partly Cloudy
7:56 PM 87.1 °F 87.5 °F 62.1 °F 43% 29.93 in 10.0 mi NE 10.4 mph - N/A   Clear
8:56 PM 84.0 °F 85.4 °F 64.0 °F 51% 29.95 in 10.0 mi NE 4.6 mph - N/A   Clear
9:56 PM 82.9 °F 85.4 °F 66.9 °F 58% 29.97 in 10.0 mi NE 5.8 mph - N/A   Clear
10:56 PM 80.1 °F 82.9 °F 69.1 °F 69% 29.98 in 10.0 mi ENE 4.6 mph - N/A   Clear
11:56 PM 78.1 °F - 70.0 °F 76% 29.98 in 10.0 mi Calm Calm - N/A   Clear